Location: Nelson
(41.2830°S, 173.2830°E)
Time: 12:10:06
(UTC+13:00)

Radarsat Rocket - Pass Details

Date: 05 October 2021
Orbit: 933 x 1492 km, 100.6° (Epoch: 27 October)

Event Time Altitude Azimuth Distance (km) Brightness Sun altitude
Rises 05:09:59 0° 64° (ENE) 4,620 8.1 -19.7°
Reaches altitude 10° 05:13:31 10° 76° (ENE) 3,629 7.7 -19.1°
Maximum altitude 05:19:51 24° 125° (SE) 2,646 7.1 -18.0°
Drops below altitude 10° 05:25:54 10° 173° (S) 3,463 7.2 -16.9°
Sets 05:29:10 0° 185° (S) 4,364 7.6 -16.4°
